Location: Brookfield Center
(41.2406°N, 80.5579°W)
Time: 16:51:09
(UTC+00:00)

BREEZE-M DEB (TANK) - Pass Details

Date: 18 January 2020
Orbit: 278 x 13109 km, 49.6° (Epoch: 19 February)

Event Time Altitude Azimuth Distance (km) Brightness Sun altitude
Exits shadow 10:59:22 41° 313° (NW) 887 2.9 -19.5°
Maximum altitude 11:00:08 47° 348° (NNW) 907 3.2 -19.3°
Drops below altitude 10° 11:08:13 10° 62° (ENE) 4,200 7.5 -17.8°
Sets 11:14:50 0° 67° (ENE) 6,921 8.8 -16.6°
